TimeCEST,TemperatureF,Dew PointF,Humidity,Sea Level PressureIn,VisibilityMPH,Wind Direction,Wind SpeedMPH,Gust SpeedMPH,PrecipitationIn,Events,Conditions,WindDirDegrees,DateUTC
12:00 AM,57.2,50.0,77,30.04,6.2,WNW,15.0,-,N/A,,Mostly Cloudy,300,2013-09-23 22:00:00
1:00 AM,55.4,48.2,77,30.04,6.2,WNW,15.0,-,N/A,,Mostly Cloudy,290,2013-09-23 23:00:00
2:00 AM,57.2,50.0,77,30.04,6.2,WNW,17.3,-,N/A,,Mostly Cloudy,290,2013-09-24 00:00:00
3:00 AM,57.2,51.8,82,30.01,6.2,WNW,16.1,-,N/A,,Mostly Cloudy,290,2013-09-24 01:00:00
4:00 AM,55.4,51.8,88,30.01,6.2,WNW,15.0,-,N/A,,Overcast,290,2013-09-24 02:00:00
5:00 AM,55.4,51.8,88,30.01,6.2,WNW,16.1,-,N/A,,Overcast,290,2013-09-24 03:00:00
6:00 AM,53.6,50.0,88,30.01,6.2,WNW,12.7,-,N/A,,Overcast,300,2013-09-24 04:00:00
7:00 AM,55.4,51.8,88,30.01,6.2,WNW,13.8,-,N/A,,Mostly Cloudy,290,2013-09-24 05:00:00
8:00 AM,55.4,51.8,88,30.01,6.2,WNW,13.8,-,N/A,,Mostly Cloudy,290,2013-09-24 06:00:00
9:00 AM,53.6,51.8,94,30.01,6.2,West,15.0,-,N/A,,Mostly Cloudy,280,2013-09-24 07:00:00
10:00 AM,55.4,51.8,88,30.01,6.2,WNW,18.4,-,N/A,,Mostly Cloudy,290,2013-09-24 08:00:00
11:00 AM,57.2,51.8,82,30.01,6.2,WNW,16.1,-,N/A,,Mostly Cloudy,290,2013-09-24 09:00:00
12:00 PM,57.2,51.8,82,30.01,6.2,WNW,15.0,-,N/A,,Overcast,300,2013-09-24 10:00:00
1:00 PM,59.0,51.8,77,29.98,6.2,WNW,18.4,-,N/A,,Mostly Cloudy,300,2013-09-24 11:00:00
2:00 PM,60.8,51.8,72,29.98,6.2,WNW,19.6,-,N/A,,Overcast,300,2013-09-24 12:00:00
3:00 PM,60.8,51.8,72,29.98,6.2,WNW,15.0,-,N/A,,Overcast,300,2013-09-24 13:00:00
4:00 PM,59.0,50.0,72,29.98,6.2,NW,15.0,-,N/A,,Mostly Cloudy,310,2013-09-24 14:00:00
5:00 PM,60.8,50.0,68,29.98,6.2,NW,13.8,27.6,N/A,,Mostly Cloudy,310,2013-09-24 15:00:00
6:00 PM,60.8,51.8,72,29.95,6.2,NW,10.4,-,N/A,,Scattered Clouds,320,2013-09-24 16:00:00
7:00 PM,57.2,50.0,77,29.95,-9999.0,NW,5.8,-,N/A,,Clear,320,2013-09-24 17:00:00
8:00 PM,57.2,51.8,82,29.95,-9999.0,NW,5.8,-,N/A,,Clear,320,2013-09-24 18:00:00
9:00 PM,51.8,50.0,94,29.95,-9999.0,WNW,6.9,-,N/A,,Clear,290,2013-09-24 19:00:00
10:00 PM,51.8,50.0,94,29.95,-9999.0,WNW,8.1,-,N/A,,Clear,290,2013-09-24 20:00:00
11:00 PM,51.8,50.0,94,29.95,-9999.0,NW,8.1,-,N/A,,Clear,310,2013-09-24 21:00:00